Location: Austin
(30.3000°N, 97.7500°W)
Time: 01:41:42
(UTC-05:00)

SeaSat 1 - Pass Details

Date: 15 May 2024
Orbit: 741 x 743 km, 108.0° (Epoch: 29 May)

Event Time Altitude Azimuth Distance (km) Brightness Sun altitude
Exits shadow 20:49:36 - 155° (SSE) 3,047 5.1 -6.9°
Reaches altitude 10° 20:51:34 10° 155° (SSE) 2,242 4.5 -7.3°
Maximum altitude 20:56:28 89° 62° (ENE) 746 2.5 -8.2°
Drops below altitude 10° 21:01:22 10° 337° (NNW) 2,255 5.8 -9.2°
Sets 21:03:38 0° 337° (NNW) 3,182 6.6 -9.6°
